Location: Mahannah Oil Field
(37.4664°N, 96.6003°W)
Time: 01:56:10
(UTC+00:00)

deb Explorer IX - Pass Details

Date: 26 January 2021
Orbit: 537 x 1102 km, 38.8° (Epoch: 25 February)

Event Time Altitude Azimuth Distance (km) Brightness Sun altitude
Rises 05:49:20 0° 274° (W) 3,103 - -68.3°
Reaches altitude 10° 05:53:16 10° 245° (WSW) 2,045 - -68.7°
Maximum altitude 05:55:08 12° 221° (SW) 1,840 - -68.9°
Drops below altitude 10° 05:56:56 10° 197° (SSW) 1,933 - -69.1°
Sets 06:00:24 0° 166° (SSE) 2,744 - -69.4°
